Time,TemperatureF,DewpointF,PressureIn,WindDirection,WindDirectionDegrees,WindSpeedMPH,WindSpeedGustMPH,Humidity,HourlyPrecipIn,Conditions,Clouds,dailyrainin,SoftwareType,DateUTC
2013-01-23 00:01:00,8.9,-1.8,30.34,West,270,3.0,5.0,61,0.00,,---,0.00,VWS V14.01,2013-01-23 05:01:00,
2013-01-23 00:03:00,8.9,-1.5,30.34,WNW,290,1.0,5.0,62,0.00,,---,0.00,VWS V14.01,2013-01-23 05:03:00,
2013-01-23 00:04:00,8.9,-1.5,30.34,SW,226,6.0,7.0,62,0.00,,---,0.00,VWS V14.01,2013-01-23 05:04:00,
2013-01-23 00:09:00,8.9,-1.1,30.34,SW,219,1.0,7.0,63,0.00,,---,0.00,VWS V14.01,2013-01-23 05:09:00,
2013-01-23 00:14:00,9.0,-1.4,30.34,WNW,290,2.0,9.0,62,0.00,,---,0.00,VWS V14.01,2013-01-23 05:14:00,
2013-01-23 00:19:00,9.2,-1.2,30.34,SW,235,1.0,9.0,62,0.00,,---,0.00,VWS V14.01,2013-01-23 05:19:00,
2013-01-23 00:24:00,9.3,-1.1,30.34,North,356,0.0,9.0,62,0.00,,---,0.00,VWS V14.01,2013-01-23 05:24:00,
2013-01-23 00:29:00,9.4,-1.0,30.34,West,279,6.0,9.0,62,0.00,,---,0.00,VWS V14.01,2013-01-23 05:29:00,
2013-01-23 00:34:00,9.4,-1.3,30.34,WNW,298,1.0,8.0,61,0.00,,---,0.00,VWS V14.01,2013-01-23 05:34:00,
2013-01-23 00:39:00,9.5,-0.5,30.34,SSW,210,0.0,8.0,63,0.00,,---,0.00,VWS V14.01,2013-01-23 05:39:00,
2013-01-23 00:44:00,9.6,-0.8,30.34,WNW,288,3.0,8.0,62,0.00,,---,0.00,VWS V14.01,2013-01-23 05:44:00,
2013-01-23 00:50:00,9.6,-0.8,30.34,ENE,69,1.0,8.0,62,0.00,,---,0.00,VWS V14.01,2013-01-23 05:50:00,
2013-01-23 00:55:00,9.6,-0.4,30.34,WSW,253,4.0,8.0,63,0.00,,---,0.00,VWS V14.01,2013-01-23 05:55:00,
2013-01-23 01:00:00,9.6,-0.4,30.34,SW,216,2.0,8.0,63,0.00,,---,0.00,VWS V14.01,2013-01-23 06:00:00,
2013-01-23 01:05:00,9.6,-0.8,30.34,WNW,293,6.0,11.0,62,0.00,,---,0.00,VWS V14.01,2013-01-23 06:05:00,
2013-01-23 01:10:00,9.6,-1.1,30.34,West,280,0.0,11.0,61,0.00,,---,0.00,VWS V14.01,2013-01-23 06:10:00,
2013-01-23 01:15:00,9.6,-0.4,30.34,SW,235,0.0,11.0,63,0.00,,---,0.00,VWS V14.01,2013-01-23 06:15:00,
2013-01-23 01:20:00,9.7,-1.0,30.34,West,281,0.0,11.0,61,0.00,,---,0.00,VWS V14.01,2013-01-23 06:20:00,
2013-01-23 01:25:00,9.7,-1.0,30.34,West,265,1.0,11.0,61,0.00,,---,0.00,VWS V14.01,2013-01-23 06:25:00,
2013-01-23 01:30:00,9.7,-0.7,30.34,West,280,1.0,3.0,62,0.00,,---,0.00,VWS V14.01,2013-01-23 06:30:00,
2013-01-23 01:35:00,9.7,-0.7,30.35,South,183,1.0,8.0,62,0.00,,---,0.00,VWS V14.01,2013-01-23 06:35:00,
2013-01-23 01:40:00,9.8,-0.6,30.35,WSW,240,3.0,8.0,62,0.00,,---,0.00,VWS V14.01,2013-01-23 06:40:00,
2013-01-23 01:46:00,9.8,-0.6,30.35,WNW,297,5.0,8.0,62,0.00,,---,0.00,VWS V14.01,2013-01-23 06:46:00,
2013-01-23 01:51:00,9.8,-0.6,30.35,West,281,1.0,8.0,62,0.00,,---,0.00,VWS V14.01,2013-01-23 06:51:00,
2013-01-23 01:56:00,9.8,-0.6,30.35,North,4,3.0,8.0,62,0.00,,---,0.00,VWS V14.01,2013-01-23 06:56:00,
2013-01-23 02:01:00,9.7,-0.7,30.36,West,279,1.0,6.0,62,0.00,,---,0.00,VWS V14.01,2013-01-23 07:01:00,
2013-01-23 02:06:00,9.6,-0.8,30.36,WSW,238,5.0,10.0,62,0.00,,---,0.00,VWS V14.01,2013-01-23 07:06:00,
2013-01-23 02:11:00,9.6,-1.1,30.36,WSW,254,1.0,10.0,61,0.00,,---,0.00,VWS V14.01,2013-01-23 07:11:00,
2013-01-23 02:17:00,9.6,-0.8,30.36,West,277,0.0,10.0,62,0.00,,---,0.00,VWS V14.01,2013-01-23 07:17:00,
2013-01-23 02:22:00,9.5,-1.2,30.36,SW,217,5.0,11.0,61,0.00,,---,0.00,VWS V14.01,2013-01-23 07:22:00,
2013-01-23 02:27:00,9.5,-0.9,30.36,WNW,291,3.0,11.0,62,0.00,,---,0.00,VWS V14.01,2013-01-23 07:27:00,
2013-01-23 02:32:00,9.4,-1.3,30.36,SSW,207,1.0,7.0,61,0.00,,---,0.00,VWS V14.01,2013-01-23 07:32:00,
2013-01-23 02:37:00,9.3,-1.4,30.36,South,191,1.0,9.0,61,0.00,,---,0.00,VWS V14.01,2013-01-23 07:37:00,
2013-01-23 02:42:00,9.2,-1.2,30.36,SW,226,2.0,9.0,62,0.00,,---,0.00,VWS V14.01,2013-01-23 07:42:00,
2013-01-23 02:47:00,9.1,-1.3,30.36,WNW,284,0.0,11.0,62,0.00,,---,0.00,VWS V14.01,2013-01-23 07:47:00,
2013-01-23 02:52:00,9.0,-1.4,30.37,WSW,248,1.0,11.0,62,0.00,,---,0.00,VWS V14.01,2013-01-23 07:52:00,
2013-01-23 02:57:00,8.9,-1.5,30.37,SW,217,5.0,11.0,62,0.00,,---,0.00,VWS V14.01,2013-01-23 07:57:00,
2013-01-23 03:03:00,8.9,-1.5,30.37,West,269,2.0,9.0,62,0.00,,---,0.00,VWS V14.01,2013-01-23 08:03:00,
2013-01-23 03:08:00,8.8,-1.2,30.37,WNW,300,6.0,9.0,63,0.00,,---,0.00,VWS V14.01,2013-01-23 08:08:00,
2013-01-23 03:13:00,8.8,-1.5,30.37,WSW,239,4.0,9.0,62,0.00,,---,0.00,VWS V14.01,2013-01-23 08:13:00,
2013-01-23 03:18:00,8.7,-1.3,30.37,WSW,242,7.0,9.0,63,0.00,,---,0.00,VWS V14.01,2013-01-23 08:18:00,
2013-01-23 03:23:00,8.7,-1.3,30.37,West,270,4.0,9.0,63,0.00,,---,0.00,VWS V14.01,2013-01-23 08:23:00,
2013-01-23 03:28:00,8.6,-1.4,30.37,West,270,5.0,10.0,63,0.00,,---,0.00,VWS V14.01,2013-01-23 08:28:00,
2013-01-23 03:33:00,8.5,-1.5,30.37,WNW,298,2.0,5.0,63,0.00,,---,0.00,VWS V14.01,2013-01-23 08:33:00,
2013-01-23 03:38:00,8.5,-1.5,30.36,SW,219,6.0,9.0,63,0.00,,---,0.00,VWS V14.01,2013-01-23 08:38:00,
2013-01-23 03:43:00,8.5,-1.2,30.36,WSW,252,8.0,12.0,64,0.00,,---,0.00,VWS V14.01,2013-01-23 08:43:00,
2013-01-23 03:48:00,8.5,-1.5,30.36,SE,146,1.0,12.0,63,0.00,,---,0.00,VWS V14.01,2013-01-23 08:48:00,
2013-01-23 03:53:00,8.4,-1.6,30.36,West,273,1.0,12.0,63,0.00,,---,0.00,VWS V14.01,2013-01-23 08:53:00,
2013-01-23 03:58:00,8.4,-1.6,30.36,SW,215,4.0,12.0,63,0.00,,---,0.00,VWS V14.01,2013-01-23 08:58:00,
2013-01-23 04:03:00,8.3,-1.4,30.36,SW,222,7.0,17.0,64,0.00,,---,0.00,VWS V14.01,2013-01-23 09:03:00,
2013-01-23 04:08:00,8.4,-1.3,30.36,West,263,5.0,17.0,64,0.00,,---,0.00,VWS V14.01,2013-01-23 09:08:00,
2013-01-23 04:13:00,8.4,-1.3,30.36,West,260,2.0,17.0,64,0.00,,---,0.00,VWS V14.01,2013-01-23 09:13:00,
2013-01-23 04:18:00,8.3,-1.4,30.36,SW,229,7.0,17.0,64,0.00,,---,0.00,VWS V14.01,2013-01-23 09:18:00,
2013-01-23 04:23:00,8.3,-1.4,30.36,NNW,333,1.0,17.0,64,0.00,,---,0.00,VWS V14.01,2013-01-23 09:23:00,
2013-01-23 04:28:00,8.3,-1.0,30.35,WNW,298,3.0,17.0,65,0.00,,---,0.00,VWS V14.01,2013-01-23 09:28:00,
2013-01-23 04:33:00,8.1,-1.5,30.35,SSW,198,2.0,9.0,64,0.00,,---,0.00,VWS V14.01,2013-01-23 09:33:00,
2013-01-23 04:38:00,8.0,-1.3,30.35,WNW,283,4.0,10.0,65,0.00,,---,0.00,VWS V14.01,2013-01-23 09:38:00,
2013-01-23 04:43:00,8.1,-1.2,30.36,SW,226,4.0,15.0,65,0.00,,---,0.00,VWS V14.01,2013-01-23 09:43:00,
2013-01-23 04:48:00,8.0,-1.3,30.35,SW,225,7.0,15.0,65,0.00,,---,0.00,VWS V14.01,2013-01-23 09:48:00,
2013-01-23 04:53:00,8.0,-1.3,30.35,South,188,8.0,15.0,65,0.00,,---,0.00,VWS V14.01,2013-01-23 09:53:00,
2013-01-23 04:59:00,8.0,-1.3,30.36,WNW,301,4.0,15.0,65,0.00,,---,0.00,VWS V14.01,2013-01-23 09:59:00,
2013-01-23 05:04:00,8.0,-1.3,30.36,WNW,283,3.0,11.0,65,0.00,,---,0.00,VWS V14.01,2013-01-23 10:04:00,
2013-01-23 05:09:00,7.9,-1.4,30.36,West,276,4.0,14.0,65,0.00,,---,0.00,VWS V14.01,2013-01-23 10:09:00,
2013-01-23 05:14:00,7.8,-1.5,30.36,SW,236,4.0,14.0,65,0.00,,---,0.00,VWS V14.01,2013-01-23 10:14:00,
2013-01-23 05:19:00,7.8,-1.5,30.36,WSW,255,10.0,14.0,65,0.00,,---,0.00,VWS V14.01,2013-01-23 10:19:00,
2013-01-23 05:24:00,7.7,-1.3,30.36,West,267,3.0,14.0,66,0.00,,---,0.00,VWS V14.01,2013-01-23 10:24:00,
2013-01-23 05:29:00,7.7,-1.3,30.36,West,269,6.0,14.0,66,0.00,,---,0.00,VWS V14.01,2013-01-23 10:29:00,
2013-01-23 05:34:00,7.6,-1.4,30.36,WSW,250,2.0,13.0,66,0.00,,---,0.00,VWS V14.01,2013-01-23 10:34:00,
2013-01-23 05:39:00,7.6,-1.4,30.36,West,267,7.0,13.0,66,0.00,,---,0.00,VWS V14.01,2013-01-23 10:39:00,
2013-01-23 05:44:00,7.6,-1.4,30.36,SW,230,6.0,13.0,66,0.00,,---,0.00,VWS V14.01,2013-01-23 10:44:00,
2013-01-23 05:49:00,7.5,-1.5,30.37,WSW,257,4.0,13.0,66,0.00,,---,0.00,VWS V14.01,2013-01-23 10:49:00,
2013-01-23 05:54:00,7.4,-1.2,30.37,WSW,255,5.0,13.0,67,0.00,,---,0.00,VWS V14.01,2013-01-23 10:54:00,
2013-01-23 05:59:00,7.3,-1.3,30.37,WSW,240,5.0,13.0,67,0.00,,---,0.00,VWS V14.01,2013-01-23 10:59:00,
2013-01-23 06:04:00,7.3,-1.3,30.37,WNW,298,2.0,7.0,67,0.00,,---,0.00,VWS V14.01,2013-01-23 11:04:00,
2013-01-23 06:09:00,7.3,-1.3,30.37,WSW,255,1.0,12.0,67,0.00,,---,0.00,VWS V14.01,2013-01-23 11:09:00,
2013-01-23 06:14:00,7.3,-1.3,30.37,WSW,242,2.0,12.0,67,0.00,,---,0.00,VWS V14.01,2013-01-23 11:14:00,
2013-01-23 06:20:00,7.2,-1.1,30.37,WSW,249,3.0,12.0,68,0.00,,---,0.00,VWS V14.01,2013-01-23 11:20:00,
2013-01-23 06:25:00,7.1,-1.2,30.37,SW,220,0.0,12.0,68,0.00,,---,0.00,VWS V14.01,2013-01-23 11:25:00,
2013-01-23 06:30:00,7.0,-1.0,30.37,South,184,4.0,12.0,69,0.00,,---,0.00,VWS V14.01,2013-01-23 11:30:00,
2013-01-23 06:35:00,7.0,-1.0,30.38,SW,218,4.0,7.0,69,0.00,,---,0.00,VWS V14.01,2013-01-23 11:35:00,
2013-01-23 06:40:00,6.9,-1.1,30.38,SSW,197,0.0,7.0,69,0.00,,---,0.00,VWS V14.01,2013-01-23 11:40:00,
2013-01-23 06:45:00,6.9,-1.1,30.38,West,277,2.0,9.0,69,0.00,,---,0.00,VWS V14.01,2013-01-23 11:45:00,
2013-01-23 06:50:00,6.8,-0.9,30.38,SW,236,1.0,9.0,70,0.00,,---,0.00,VWS V14.01,2013-01-23 11:50:00,
2013-01-23 06:55:00,6.8,-1.2,30.38,SW,232,3.0,9.0,69,0.00,,---,0.00,VWS V14.01,2013-01-23 11:55:00,
2013-01-23 07:00:00,6.8,-1.2,30.38,SW,232,4.0,4.0,69,0.00,,---,0.00,VWS V14.01,2013-01-23 12:00:00,
2013-01-23 07:05:00,6.8,-1.2,30.39,SW,231,3.0,8.0,69,0.00,,---,0.00,VWS V14.01,2013-01-23 12:05:00,
2013-01-23 07:10:00,6.8,-1.2,30.39,South,190,3.0,8.0,69,0.00,,---,0.00,VWS V14.01,2013-01-23 12:10:00,
2013-01-23 07:15:00,6.8,-1.2,30.39,West,278,3.0,8.0,69,0.00,,---,0.00,VWS V14.01,2013-01-23 12:15:00,
2013-01-23 07:20:00,6.8,-1.2,30.38,SW,226,5.0,8.0,69,0.00,,---,0.00,VWS V14.01,2013-01-23 12:20:00,
2013-01-23 07:25:00,6.7,-1.0,30.39,West,274,2.0,9.0,70,0.00,,---,0.00,VWS V14.01,2013-01-23 12:25:00,
2013-01-23 07:30:00,6.7,-1.0,30.39,SW,220,2.0,4.0,70,0.00,,---,0.00,VWS V14.01,2013-01-23 12:30:00,
2013-01-23 07:35:00,6.6,-1.1,30.38,SSW,197,2.0,5.0,70,0.00,,---,0.00,VWS V14.01,2013-01-23 12:35:00,
2013-01-23 07:40:00,6.6,-1.1,30.39,WSW,253,2.0,6.0,70,0.00,,---,0.00,VWS V14.01,2013-01-23 12:40:00,
2013-01-23 07:46:00,6.7,-1.0,30.38,South,180,2.0,9.0,70,0.00,,---,0.00,VWS V14.01,2013-01-23 12:46:00,
2013-01-23 07:51:00,6.8,-0.9,30.39,WSW,256,5.0,9.0,70,0.00,,---,0.00,VWS V14.01,2013-01-23 12:51:00,
2013-01-23 07:56:00,6.9,-0.8,30.39,SSW,208,2.0,9.0,70,0.00,,---,0.00,VWS V14.01,2013-01-23 12:56:00,
2013-01-23 08:01:00,7.1,-0.6,30.39,WNW,284,5.0,8.0,70,0.00,,---,0.00,VWS V14.01,2013-01-23 13:01:00,
2013-01-23 08:06:00,7.4,-0.6,30.39,SSW,195,1.0,9.0,69,0.00,,---,0.00,VWS V14.01,2013-01-23 13:06:00,
2013-01-23 08:12:00,7.9,-0.1,30.39,SW,225,2.0,9.0,69,0.00,,---,0.00,VWS V14.01,2013-01-23 13:12:00,
2013-01-23 08:17:00,8.4,0.0,30.39,SW,226,3.0,9.0,68,0.00,,---,0.00,VWS V14.01,2013-01-23 13:17:00,
2013-01-23 08:22:00,8.9,0.5,30.40,West,278,3.0,9.0,68,0.00,,---,0.00,VWS V14.01,2013-01-23 13:22:00,
2013-01-23 08:27:00,9.1,0.4,30.39,WNW,295,7.0,9.0,67,0.00,,---,0.00,VWS V14.01,2013-01-23 13:27:00,
2013-01-23 08:32:00,8.8,-0.2,30.39,WNW,294,4.0,11.0,66,0.00,,---,0.00,VWS V14.01,2013-01-23 13:32:00,
2013-01-23 08:37:00,8.7,-0.3,30.39,WSW,248,2.0,11.0,66,0.00,,---,0.00,VWS V14.01,2013-01-23 13:37:00,
2013-01-23 08:42:00,8.7,0.0,30.40,South,181,5.0,11.0,67,0.00,,---,0.00,VWS V14.01,2013-01-23 13:42:00,
2013-01-23 08:47:00,8.8,0.1,30.40,WSW,253,3.0,11.0,67,0.00,,---,0.00,VWS V14.01,2013-01-23 13:47:00,
2013-01-23 08:52:00,9.0,0.3,30.40,ESE,120,0.0,11.0,67,0.00,,---,0.00,VWS V14.01,2013-01-23 13:52:00,
2013-01-23 08:57:00,9.3,0.6,30.41,SW,214,2.0,11.0,67,0.00,,---,0.00,VWS V14.01,2013-01-23 13:57:00,
2013-01-23 09:03:00,9.3,0.3,30.40,West,271,5.0,10.0,66,0.00,,---,0.00,VWS V14.01,2013-01-23 14:03:00,
2013-01-23 09:08:00,9.5,0.4,30.41,SW,232,7.0,13.0,66,0.00,,---,0.00,VWS V14.01,2013-01-23 14:08:00,
2013-01-23 09:13:00,9.6,0.2,30.41,SSW,200,7.0,16.0,65,0.00,,---,0.00,VWS V14.01,2013-01-23 14:13:00,
2013-01-23 09:18:00,9.8,0.7,30.40,SW,222,7.0,16.0,66,0.00,,---,0.00,VWS V14.01,2013-01-23 14:18:00,
2013-01-23 09:23:00,9.8,0.4,30.41,SW,218,6.0,16.0,65,0.00,,---,0.00,VWS V14.01,2013-01-23 14:23:00,
2013-01-23 09:28:00,9.7,0.3,30.40,SSW,203,4.0,16.0,65,0.00,,---,0.00,VWS V14.01,2013-01-23 14:28:00,
2013-01-23 09:33:00,9.9,0.5,30.40,SW,221,5.0,12.0,65,0.00,,---,0.00,VWS V14.01,2013-01-23 14:33:00,
2013-01-23 09:38:00,10.2,0.5,30.41,SSW,211,3.0,12.0,64,0.00,,---,0.00,VWS V14.01,2013-01-23 14:38:00,
2013-01-23 09:44:00,10.8,0.7,30.41,SW,225,5.0,14.0,63,0.00,,---,0.00,VWS V14.01,2013-01-23 14:44:00,
2013-01-23 09:49:00,11.3,0.5,30.40,SW,217,4.0,16.0,61,0.00,,---,0.00,VWS V14.01,2013-01-23 14:49:00,
2013-01-23 09:54:00,11.6,0.4,30.41,SSW,207,7.0,17.0,60,0.00,,---,0.00,VWS V14.01,2013-01-23 14:54:00,
2013-01-23 09:59:00,11.7,0.9,30.41,WSW,240,7.0,17.0,61,0.00,,---,0.00,VWS V14.01,2013-01-23 14:59:00,
2013-01-23 10:04:00,12.2,0.3,30.41,WSW,255,7.0,18.0,58,0.00,,---,0.00,VWS V14.01,2013-01-23 15:04:00,
2013-01-23 10:09:00,12.5,0.5,30.41,WNW,285,7.0,18.0,58,0.00,,---,0.00,VWS V14.01,2013-01-23 15:09:00,
2013-01-23 10:14:00,12.8,0.1,30.41,West,269,7.0,18.0,56,0.00,,---,0.00,VWS V14.01,2013-01-23 15:14:00,
2013-01-23 10:19:00,12.9,0.2,30.42,WSW,248,6.0,18.0,56,0.00,,---,0.00,VWS V14.01,2013-01-23 15:19:00,
2013-01-23 10:24:00,13.3,0.2,30.41,West,270,0.0,18.0,55,0.00,,---,0.00,VWS V14.01,2013-01-23 15:24:00,
2013-01-23 10:30:00,14.0,0.0,30.42,SW,233,4.0,18.0,53,0.00,,---,0.00,VWS V14.01,2013-01-23 15:30:00,
2013-01-23 10:35:00,14.7,0.7,30.42,NNW,329,1.0,11.0,53,0.00,,---,0.00,VWS V14.01,2013-01-23 15:35:00,
2013-01-23 10:40:00,14.8,0.4,30.41,WSW,238,6.0,12.0,52,0.00,,---,0.00,VWS V14.01,2013-01-23 15:40:00,
2013-01-23 10:45:00,14.8,0.4,30.42,SSW,212,12.0,14.0,52,0.00,,---,0.00,VWS V14.01,2013-01-23 15:45:00,
2013-01-23 10:50:00,14.6,-0.2,30.41,SW,232,8.0,15.0,51,0.00,,---,0.00,VWS V14.01,2013-01-23 15:50:00,
2013-01-23 10:55:00,14.7,0.3,30.41,WSW,248,9.0,22.0,52,0.00,,---,0.00,VWS V14.01,2013-01-23 15:55:00,
2013-01-23 11:00:00,14.8,0.4,30.41,West,262,9.0,17.0,52,0.00,,---,0.00,VWS V14.01,2013-01-23 16:00:00,
2013-01-23 11:05:00,15.2,0.3,30.40,WSW,245,2.0,17.0,51,0.00,,---,0.00,VWS V14.01,2013-01-23 16:05:00,
2013-01-23 11:11:00,15.5,-0.2,30.40,WSW,248,6.0,17.0,49,0.00,,---,0.00,VWS V14.01,2013-01-23 16:11:00,
2013-01-23 11:16:00,15.2,-0.5,30.40,SSW,211,6.0,17.0,49,0.00,,---,0.00,VWS V14.01,2013-01-23 16:16:00,
2013-01-23 11:21:00,15.5,-0.7,30.40,SSW,212,4.0,18.0,48,0.00,,---,0.00,VWS V14.01,2013-01-23 16:21:00,
2013-01-23 11:26:00,15.5,-1.6,30.40,WSW,248,6.0,18.0,46,0.00,,---,0.00,VWS V14.01,2013-01-23 16:26:00,
2013-01-23 11:31:00,15.6,-2.4,30.39,SW,232,8.0,14.0,44,0.00,,---,0.00,VWS V14.01,2013-01-23 16:31:00,
2013-01-23 11:36:00,15.5,-3.0,30.39,SW,226,4.0,17.0,43,0.00,,---,0.00,VWS V14.01,2013-01-23 16:36:00,
2013-01-23 11:41:00,16.0,-1.6,30.39,West,264,1.0,17.0,45,0.00,,---,0.00,VWS V14.01,2013-01-23 16:41:00,
2013-01-23 11:46:00,16.2,-2.4,30.38,NW,307,0.0,19.0,43,0.00,,---,0.00,VWS V14.01,2013-01-23 16:46:00,
2013-01-23 11:52:00,16.4,-2.7,30.38,WSW,237,9.0,19.0,42,0.00,,---,0.00,VWS V14.01,2013-01-23 16:52:00,
2013-01-23 11:57:00,16.6,-3.0,30.38,SSE,160,5.0,19.0,41,0.00,,---,0.00,VWS V14.01,2013-01-23 16:57:00,
2013-01-23 12:02:00,17.1,-3.6,30.37,NW,307,9.0,12.0,39,0.00,,---,0.00,VWS V14.01,2013-01-23 17:02:00,
2013-01-23 12:07:00,17.5,-4.3,30.37,West,273,9.0,18.0,37,0.00,,---,0.00,VWS V14.01,2013-01-23 17:07:00,
2013-01-23 12:12:00,17.6,-4.2,30.37,WNW,283,7.0,20.0,37,0.00,,---,0.00,VWS V14.01,2013-01-23 17:12:00,
2013-01-23 12:17:00,17.9,-2.9,30.36,SSW,207,15.0,20.0,39,0.00,,---,0.00,VWS V14.01,2013-01-23 17:17:00,
2013-01-23 12:22:00,18.3,-3.6,30.36,SW,228,9.0,20.0,37,0.00,,---,0.00,VWS V14.01,2013-01-23 17:22:00,
2013-01-23 12:27:00,18.4,-3.5,30.36,WSW,239,5.0,20.0,37,0.00,,---,0.00,VWS V14.01,2013-01-23 17:27:00,
2013-01-23 12:32:00,18.7,-3.8,30.35,SW,217,16.0,16.0,36,0.00,,---,0.00,VWS V14.01,2013-01-23 17:32:00,
2013-01-23 12:37:00,18.9,-2.5,30.35,SSW,206,1.0,16.0,38,0.00,,---,0.00,VWS V14.01,2013-01-23 17:37:00,
2013-01-23 12:42:00,18.5,-3.4,30.34,SSW,204,5.0,16.0,37,0.00,,---,0.00,VWS V14.01,2013-01-23 17:42:00,
2013-01-23 12:47:00,18.7,-2.7,30.34,West,264,2.0,16.0,38,0.00,,---,0.00,VWS V14.01,2013-01-23 17:47:00,
2013-01-23 12:52:00,19.0,-1.9,30.34,SW,222,11.0,17.0,39,0.00,,---,0.00,VWS V14.01,2013-01-23 17:52:00,
2013-01-23 12:58:00,18.6,-1.7,30.34,SSW,194,9.0,19.0,40,0.00,,---,0.00,VWS V14.01,2013-01-23 17:58:00,
2013-01-23 13:02:00,18.4,-1.4,30.34,SSW,205,10.0,16.0,41,0.00,,---,0.00,VWS V14.01,2013-01-23 18:02:00,
2013-01-23 13:08:00,18.3,-0.9,30.34,SSW,204,3.0,19.0,42,0.00,,---,0.00,VWS V14.01,2013-01-23 18:08:00,
2013-01-23 13:13:00,18.3,-0.9,30.33,WSW,238,6.0,19.0,42,0.00,,---,0.00,VWS V14.01,2013-01-23 18:13:00,
2013-01-23 13:18:00,18.3,-0.9,30.33,WSW,238,11.0,19.0,42,0.00,,---,0.00,VWS V14.01,2013-01-23 18:18:00,
2013-01-23 13:23:00,18.3,-0.4,30.33,SW,224,2.0,19.0,43,0.00,,---,0.00,VWS V14.01,2013-01-23 18:23:00,
2013-01-23 13:28:00,18.3,0.5,30.33,South,183,4.0,19.0,45,0.00,,---,0.00,VWS V14.01,2013-01-23 18:28:00,
2013-01-23 13:33:00,18.8,1.5,30.32,SSE,154,5.0,11.0,46,0.00,,---,0.00,VWS V14.01,2013-01-23 18:33:00,
2013-01-23 13:38:00,19.0,1.6,30.32,WNW,297,4.0,17.0,46,0.00,,---,0.00,VWS V14.01,2013-01-23 18:38:00,
2013-01-23 13:43:00,19.2,2.3,30.32,SW,222,5.0,17.0,47,0.00,,---,0.00,VWS V14.01,2013-01-23 18:43:00,
2013-01-23 13:48:00,19.4,3.4,30.32,WSW,238,2.0,17.0,49,0.00,,---,0.00,VWS V14.01,2013-01-23 18:48:00,
2013-01-23 13:53:00,19.4,2.5,30.32,SW,219,7.0,17.0,47,0.00,,---,0.00,VWS V14.01,2013-01-23 18:53:00,
2013-01-23 13:58:00,19.4,3.4,30.31,West,263,2.0,17.0,49,0.00,,---,0.00,VWS V14.01,2013-01-23 18:58:00,
2013-01-23 14:03:00,19.4,3.8,30.31,West,276,3.0,7.0,50,0.00,,---,0.00,VWS V14.01,2013-01-23 19:03:00,
2013-01-23 14:08:00,19.3,4.1,30.31,SW,235,7.0,9.0,51,0.00,,---,0.00,VWS V14.01,2013-01-23 19:08:00,
2013-01-23 14:13:00,18.8,4.5,30.31,SW,236,4.0,15.0,53,0.00,,---,0.00,VWS V14.01,2013-01-23 19:13:00,
2013-01-23 14:18:00,18.5,4.6,30.31,SW,222,5.0,15.0,54,0.00,,---,0.00,VWS V14.01,2013-01-23 19:18:00,
2013-01-23 14:23:00,18.2,5.2,30.31,SW,226,10.0,17.0,56,0.00,,---,0.00,VWS V14.01,2013-01-23 19:23:00,
2013-01-23 14:29:00,18.2,5.9,30.31,West,274,2.0,17.0,58,0.00,,---,0.00,VWS V14.01,2013-01-23 19:29:00,
2013-01-23 14:34:00,18.3,6.0,30.30,NW,304,0.0,14.0,58,0.00,,---,0.00,VWS V14.01,2013-01-23 19:34:00,
2013-01-23 14:39:00,18.3,6.8,30.30,West,267,5.0,14.0,60,0.00,,---,0.00,VWS V14.01,2013-01-23 19:39:00,
2013-01-23 14:44:00,18.1,6.9,30.31,SSW,205,2.0,14.0,61,0.00,,---,0.00,VWS V14.01,2013-01-23 19:44:00,
2013-01-23 14:49:00,17.9,7.1,30.31,SSW,205,2.0,14.0,62,0.00,,---,0.00,VWS V14.01,2013-01-23 19:49:00,
2013-01-23 14:54:00,18.0,7.2,30.31,WSW,245,3.0,14.0,62,0.00,,---,0.00,VWS V14.01,2013-01-23 19:54:00,
2013-01-23 14:59:00,18.1,7.3,30.31,West,274,2.0,14.0,62,0.00,,---,0.00,VWS V14.01,2013-01-23 19:59:00,
2013-01-23 15:04:00,18.1,7.6,30.31,South,183,3.0,6.0,63,0.00,,---,0.00,VWS V14.01,2013-01-23 20:04:00,
2013-01-23 15:09:00,17.8,7.3,30.31,West,260,0.0,15.0,63,0.00,,---,0.00,VWS V14.01,2013-01-23 20:09:00,
2013-01-23 15:14:00,17.7,7.9,30.30,WSW,245,6.0,15.0,65,0.00,,---,0.00,VWS V14.01,2013-01-23 20:14:00,
2013-01-23 15:19:00,17.5,8.4,30.30,WSW,241,5.0,15.0,67,0.00,,---,0.00,VWS V14.01,2013-01-23 20:19:00,
2013-01-23 15:25:00,17.5,8.8,30.30,West,278,3.0,15.0,68,0.00,,---,0.00,VWS V14.01,2013-01-23 20:25:00,
2013-01-23 15:30:00,17.5,9.4,30.30,SSW,211,7.0,15.0,70,0.00,,---,0.00,VWS V14.01,2013-01-23 20:30:00,
2013-01-23 15:35:00,17.4,9.6,30.30,WSW,243,4.0,14.0,71,0.00,,---,0.00,VWS V14.01,2013-01-23 20:35:00,
2013-01-23 15:40:00,17.2,9.7,30.30,SW,226,8.0,15.0,72,0.00,,---,0.00,VWS V14.01,2013-01-23 20:40:00,
2013-01-23 15:45:00,17.1,9.9,30.30,SSW,210,4.0,15.0,73,0.00,,---,0.00,VWS V14.01,2013-01-23 20:45:00,
2013-01-23 15:50:00,17.3,10.4,30.30,WSW,250,1.0,15.0,74,0.00,,---,0.00,VWS V14.01,2013-01-23 20:50:00,
2013-01-23 15:55:00,17.2,10.1,30.29,WSW,238,5.0,15.0,73,0.00,,---,0.00,VWS V14.01,2013-01-23 20:55:00,
2013-01-23 16:00:00,17.2,10.6,30.29,West,260,2.0,2.0,75,0.00,,---,0.00,VWS V14.01,2013-01-23 21:00:00,
2013-01-23 16:05:00,17.3,10.8,30.30,SSW,203,4.0,10.0,75,0.00,,---,0.00,VWS V14.01,2013-01-23 21:05:00,
2013-01-23 16:10:00,17.3,10.8,30.30,SW,226,4.0,10.0,75,0.00,,---,0.00,VWS V14.01,2013-01-23 21:10:00,
2013-01-23 16:15:00,17.5,10.9,30.29,WNW,287,2.0,10.0,75,0.00,,---,0.00,VWS V14.01,2013-01-23 21:15:00,
2013-01-23 16:20:00,17.5,10.6,30.29,WNW,296,3.0,10.0,74,0.00,,---,0.00,VWS V14.01,2013-01-23 21:20:00,
2013-01-23 16:25:00,17.4,10.6,30.29,SW,229,1.0,10.0,74,0.00,,---,0.00,VWS V14.01,2013-01-23 21:25:00,
2013-01-23 16:30:00,17.5,10.9,30.29,SW,233,3.0,3.0,75,0.00,,---,0.00,VWS V14.01,2013-01-23 21:30:00,
2013-01-23 16:36:00,17.4,10.6,30.29,South,191,2.0,5.0,74,0.00,,---,0.00,VWS V14.01,2013-01-23 21:36:00,
2013-01-23 16:41:00,17.5,10.6,30.28,SW,219,3.0,7.0,74,0.00,,---,0.00,VWS V14.01,2013-01-23 21:41:00,
2013-01-23 16:46:00,17.5,10.6,30.28,WSW,242,1.0,8.0,74,0.00,,---,0.00,VWS V14.01,2013-01-23 21:46:00,
2013-01-23 16:51:00,17.5,10.3,30.29,SW,218,1.0,8.0,73,0.00,,---,0.00,VWS V14.01,2013-01-23 21:51:00,
2013-01-23 16:56:00,17.5,10.3,30.28,SW,217,2.0,8.0,73,0.00,,---,0.00,VWS V14.01,2013-01-23 21:56:00,
2013-01-23 17:01:00,17.6,10.4,30.27,WNW,302,2.0,4.0,73,0.00,,---,0.00,VWS V14.01,2013-01-23 22:01:00,
2013-01-23 17:06:00,17.7,10.5,30.26,SSW,212,1.0,5.0,73,0.00,,---,0.00,VWS V14.01,2013-01-23 22:06:00,
2013-01-23 17:11:00,17.8,10.6,30.26,SW,217,1.0,8.0,73,0.00,,---,0.00,VWS V14.01,2013-01-23 22:11:00,
2013-01-23 17:16:00,17.7,10.5,30.26,South,188,3.0,8.0,73,0.00,,---,0.00,VWS V14.01,2013-01-23 22:16:00,
2013-01-23 17:21:00,17.7,10.5,30.27,WSW,245,0.0,8.0,73,0.00,,---,0.00,VWS V14.01,2013-01-23 22:21:00,
2013-01-23 17:26:00,17.8,10.3,30.26,West,271,0.0,8.0,72,0.00,,---,0.00,VWS V14.01,2013-01-23 22:26:00,
2013-01-23 17:31:00,17.8,10.3,30.26,SW,236,2.0,4.0,72,0.00,,---,0.00,VWS V14.01,2013-01-23 22:31:00,
2013-01-23 17:36:00,17.9,10.4,30.26,SW,228,3.0,9.0,72,0.00,,---,0.00,VWS V14.01,2013-01-23 22:36:00,
2013-01-23 17:41:00,17.9,10.4,30.25,SW,225,2.0,9.0,72,0.00,,---,0.00,VWS V14.01,2013-01-23 22:41:00,
2013-01-23 17:46:00,18.0,10.5,30.26,SW,214,4.0,9.0,72,0.00,,---,0.00,VWS V14.01,2013-01-23 22:46:00,
2013-01-23 17:52:00,18.1,10.6,30.25,SSW,210,3.0,9.0,72,0.00,,---,0.00,VWS V14.01,2013-01-23 22:52:00,
2013-01-23 17:57:00,18.1,10.3,30.25,South,169,3.0,9.0,71,0.00,,---,0.00,VWS V14.01,2013-01-23 22:57:00,
2013-01-23 18:02:00,18.1,10.3,30.25,SW,219,3.0,7.0,71,0.00,,---,0.00,VWS V14.01,2013-01-23 23:02:00,
2013-01-23 18:07:00,18.2,10.7,30.24,SSW,193,1.0,7.0,72,0.00,,---,0.00,VWS V14.01,2013-01-23 23:07:00,
2013-01-23 18:12:00,18.3,10.8,30.24,WSW,238,1.0,7.0,72,0.00,,---,0.00,VWS V14.01,2013-01-23 23:12:00,
2013-01-23 18:17:00,18.3,10.8,30.24,SSW,198,0.0,7.0,72,0.00,,---,0.00,VWS V14.01,2013-01-23 23:17:00,
2013-01-23 18:22:00,18.4,10.9,30.24,WSW,245,1.0,7.0,72,0.00,,---,0.00,VWS V14.01,2013-01-23 23:22:00,
2013-01-23 18:27:00,18.5,11.0,30.23,SSW,198,2.0,7.0,72,0.00,,---,0.00,VWS V14.01,2013-01-23 23:27:00,
2013-01-23 18:32:00,18.6,11.1,30.23,SW,218,2.0,2.0,72,0.00,,---,0.00,VWS V14.01,2013-01-23 23:32:00,
2013-01-23 18:37:00,18.8,11.3,30.23,SSW,198,0.0,2.0,72,0.00,,---,0.00,VWS V14.01,2013-01-23 23:37:00,
2013-01-23 18:42:00,18.9,11.4,30.23,SW,219,0.0,2.0,72,0.00,,---,0.00,VWS V14.01,2013-01-23 23:42:00,
2013-01-23 18:48:00,19.1,11.6,30.23,South,176,1.0,4.0,72,0.00,,---,0.00,VWS V14.01,2013-01-23 23:48:00,
2013-01-23 18:53:00,19.3,11.8,30.23,ESE,120,0.0,4.0,72,0.00,,---,0.00,VWS V14.01,2013-01-23 23:53:00,
2013-01-23 18:58:00,19.6,12.1,30.23,WSW,248,0.0,4.0,72,0.00,,---,0.00,VWS V14.01,2013-01-23 23:58:00,
2013-01-23 19:03:00,19.9,12.0,30.22,South,179,1.0,7.0,71,0.00,,---,0.00,VWS V14.01,2013-01-24 00:03:00,
2013-01-23 19:08:00,20.4,12.5,30.22,SSW,205,2.0,7.0,71,0.00,,---,0.00,VWS V14.01,2013-01-24 00:08:00,
2013-01-23 19:13:00,20.8,12.9,30.22,SSW,205,2.0,8.0,71,0.00,,---,0.00,VWS V14.01,2013-01-24 00:13:00,
2013-01-23 19:18:00,21.5,13.6,30.22,SW,219,5.0,9.0,71,0.00,,---,0.00,VWS V14.01,2013-01-24 00:18:00,
2013-01-23 19:23:00,22.0,13.4,30.21,SSW,193,4.0,11.0,69,0.00,,---,0.00,VWS V14.01,2013-01-24 00:23:00,
2013-01-23 19:29:00,22.4,13.8,30.21,SSW,200,3.0,11.0,69,0.00,,---,0.00,VWS V14.01,2013-01-24 00:29:00,
2013-01-23 19:34:00,22.7,14.1,30.20,SSW,210,6.0,8.0,69,0.00,,---,0.00,VWS V14.01,2013-01-24 00:34:00,
2013-01-23 19:39:00,23.0,14.0,30.20,SSW,195,5.0,9.0,68,0.00,,---,0.00,VWS V14.01,2013-01-24 00:39:00,
2013-01-23 19:44:00,23.2,14.2,30.20,SSW,199,0.0,9.0,68,0.00,,---,0.00,VWS V14.01,2013-01-24 00:44:00,
2013-01-23 19:49:00,23.4,14.4,30.20,SSW,200,7.0,9.0,68,0.00,,---,0.00,VWS V14.01,2013-01-24 00:49:00,
2013-01-23 19:54:00,23.6,14.6,30.20,SW,222,8.0,11.0,68,0.00,,---,0.00,VWS V14.01,2013-01-24 00:54:00,
2013-01-23 19:59:00,23.8,14.8,30.20,SSE,162,4.0,11.0,68,0.00,,---,0.00,VWS V14.01,2013-01-24 00:59:00,
2013-01-23 20:04:00,24.0,15.0,30.19,SE,145,1.0,8.0,68,0.00,,---,0.00,VWS V14.01,2013-01-24 01:04:00,
2013-01-23 20:09:00,24.2,15.2,30.19,SW,221,2.0,10.0,68,0.00,,---,0.00,VWS V14.01,2013-01-24 01:09:00,
2013-01-23 20:14:00,24.4,15.4,30.19,SW,217,6.0,16.0,68,0.00,,---,0.00,VWS V14.01,2013-01-24 01:14:00,
2013-01-23 20:19:00,24.5,15.5,30.19,SW,224,4.0,16.0,68,0.00,,---,0.00,VWS V14.01,2013-01-24 01:19:00,
2013-01-23 20:24:00,24.7,15.7,30.19,WSW,255,10.0,16.0,68,0.00,,---,0.00,VWS V14.01,2013-01-24 01:24:00,
2013-01-23 20:29:00,24.9,16.2,30.18,SW,218,4.0,16.0,69,0.00,,---,0.00,VWS V14.01,2013-01-24 01:29:00,
2013-01-23 20:34:00,25.0,16.3,30.18,SSW,205,3.0,12.0,69,0.00,,---,0.00,VWS V14.01,2013-01-24 01:34:00,
2013-01-23 20:39:00,25.1,16.4,30.17,SW,227,9.0,14.0,69,0.00,,---,0.00,VWS V14.01,2013-01-24 01:39:00,
2013-01-23 20:44:00,25.2,16.5,30.17,SSE,167,4.0,14.0,69,0.00,,---,0.00,VWS V14.01,2013-01-24 01:44:00,
2013-01-23 20:49:00,25.4,16.7,30.17,South,188,7.0,14.0,69,0.00,,---,0.00,VWS V14.01,2013-01-24 01:49:00,
2013-01-23 20:55:00,25.4,16.7,30.17,WSW,240,1.0,14.0,69,0.00,,---,0.00,VWS V14.01,2013-01-24 01:55:00,
2013-01-23 21:00:00,25.5,16.8,30.17,SSW,212,8.0,14.0,69,0.00,,---,0.00,VWS V14.01,2013-01-24 02:00:00,
2013-01-23 21:05:00,25.8,17.0,30.17,SSW,203,10.0,15.0,69,0.00,,---,0.00,VWS V14.01,2013-01-24 02:05:00,
2013-01-23 21:10:00,26.0,17.2,30.16,SE,139,3.0,15.0,69,0.00,,---,0.00,VWS V14.01,2013-01-24 02:10:00,
2013-01-23 21:15:00,26.1,17.0,30.16,SW,228,9.0,15.0,68,0.00,,---,0.00,VWS V14.01,2013-01-24 02:15:00,
2013-01-23 21:20:00,26.4,17.3,30.16,SW,226,7.0,18.0,68,0.00,,---,0.00,VWS V14.01,2013-01-24 02:20:00,
2013-01-23 21:25:00,26.6,17.5,30.16,SSW,204,7.0,18.0,68,0.00,,---,0.00,VWS V14.01,2013-01-24 02:25:00,
2013-01-23 21:30:00,26.6,17.1,30.16,SW,221,7.0,12.0,67,0.00,,---,0.00,VWS V14.01,2013-01-24 02:30:00,
2013-01-23 21:35:00,26.7,17.2,30.16,SW,218,6.0,12.0,67,0.00,,---,0.00,VWS V14.01,2013-01-24 02:35:00,
2013-01-23 21:40:00,26.8,17.3,30.16,WSW,243,5.0,22.0,67,0.00,,---,0.00,VWS V14.01,2013-01-24 02:40:00,
2013-01-23 21:45:00,26.8,17.3,30.15,WSW,239,8.0,22.0,67,0.00,,---,0.00,VWS V14.01,2013-01-24 02:45:00,
2013-01-23 21:50:00,26.9,17.4,30.15,SW,221,9.0,22.0,67,0.00,,---,0.00,VWS V14.01,2013-01-24 02:50:00,
2013-01-23 21:55:00,26.9,17.4,30.15,SSW,201,7.0,22.0,67,0.00,,---,0.00,VWS V14.01,2013-01-24 02:55:00,
2013-01-23 22:00:00,26.9,17.4,30.15,SW,214,9.0,18.0,67,0.00,,---,0.00,VWS V14.01,2013-01-24 03:00:00,
2013-01-23 22:05:00,27.0,17.5,30.15,WNW,287,3.0,18.0,67,0.00,,---,0.00,VWS V14.01,2013-01-24 03:05:00,
2013-01-23 22:10:00,27.0,17.5,30.15,South,181,7.0,20.0,67,0.00,,---,0.00,VWS V14.01,2013-01-24 03:10:00,
2013-01-23 22:16:00,27.0,17.5,30.15,SSW,201,2.0,20.0,67,0.00,,---,0.00,VWS V14.01,2013-01-24 03:16:00,
2013-01-23 22:21:00,26.9,17.4,30.14,WSW,237,6.0,20.0,67,0.00,,---,0.00,VWS V14.01,2013-01-24 03:21:00,
2013-01-23 22:26:00,26.9,17.4,30.14,SW,217,13.0,20.0,67,0.00,,---,0.00,VWS V14.01,2013-01-24 03:26:00,
2013-01-23 22:31:00,26.9,17.4,30.14,WSW,238,6.0,16.0,67,0.00,,---,0.00,VWS V14.01,2013-01-24 03:31:00,
2013-01-23 22:36:00,27.0,17.9,30.14,SW,224,10.0,16.0,68,0.00,,---,0.00,VWS V14.01,2013-01-24 03:36:00,
2013-01-23 22:41:00,26.9,17.4,30.14,SSW,200,8.0,16.0,67,0.00,,---,0.00,VWS V14.01,2013-01-24 03:41:00,
2013-01-23 22:46:00,26.9,17.4,30.13,SW,219,7.0,16.0,67,0.00,,---,0.00,VWS V14.01,2013-01-24 03:46:00,
2013-01-23 22:51:00,26.8,17.3,30.13,SSW,212,14.0,18.0,67,0.00,,---,0.00,VWS V14.01,2013-01-24 03:51:00,
2013-01-23 22:56:00,26.7,17.2,30.13,SSW,212,4.0,18.0,67,0.00,,---,0.00,VWS V14.01,2013-01-24 03:56:00,
2013-01-23 23:01:00,26.6,17.5,30.13,SSW,203,7.0,14.0,68,0.00,,---,0.00,VWS V14.01,2013-01-24 04:01:00,
2013-01-23 23:06:00,26.5,17.4,30.13,SW,235,4.0,16.0,68,0.00,,---,0.00,VWS V14.01,2013-01-24 04:06:00,
2013-01-23 23:11:00,26.4,17.3,30.13,South,191,7.0,16.0,68,0.00,,---,0.00,VWS V14.01,2013-01-24 04:11:00,
2013-01-23 23:17:00,26.3,17.2,30.13,WSW,255,8.0,16.0,68,0.00,,---,0.00,VWS V14.01,2013-01-24 04:17:00,
2013-01-23 23:22:00,26.2,17.1,30.13,West,275,8.0,16.0,68,0.00,,---,0.00,VWS V14.01,2013-01-24 04:22:00,
2013-01-23 23:27:00,26.1,17.3,30.12,SSW,212,11.0,17.0,69,0.00,,---,0.00,VWS V14.01,2013-01-24 04:27:00,
2013-01-23 23:32:00,26.0,17.2,30.12,SW,231,8.0,13.0,69,0.00,,---,0.00,VWS V14.01,2013-01-24 04:32:00,
2013-01-23 23:37:00,25.8,17.0,30.12,WSW,242,9.0,13.0,69,0.00,,---,0.00,VWS V14.01,2013-01-24 04:37:00,
2013-01-23 23:42:00,25.7,17.0,30.12,SSE,167,3.0,13.0,69,0.00,,---,0.00,VWS V14.01,2013-01-24 04:42:00,
2013-01-23 23:47:00,25.6,16.9,30.12,West,259,4.0,17.0,69,0.00,,---,0.00,VWS V14.01,2013-01-24 04:47:00,
2013-01-23 23:52:00,25.4,16.7,30.12,WSW,253,11.0,17.0,69,0.00,,---,0.00,VWS V14.01,2013-01-24 04:52:00,
2013-01-23 23:57:00,25.3,16.6,30.12,West,262,7.0,17.0,69,0.00,,---,0.00,VWS V14.01,2013-01-24 04:57:00,